Погода в Казначеевке

Россия / Белгородская область     50°15′33″N   37°45′11″E
темп.,
°C
ветер,
м/с
пор.,
м/с
влажн.,
%
обл.,
%
осадки,
мм/ч
давл.,
гПа
погр.,
м
18 мая, вт
вт1800:00+16ю359096 0.4 100781
03:00+15ю339293 0.4 100651
06:00+16ююв349398 0.0 1005148
09:00+19ю4583100 0.0 1005629
12:00+20ю6774100 0.5 10051150
15:00+18ю4684100 1.3 1005510
18:00+17ююв5879100 1.9 1005261
21:00+15ююв3890100 2.6 1005172
19 мая, ср
ср1900:00+13юв37943 0.0 1006151
03:00+11юв399734 0.0 1006230
06:00+12ююв4996100 0.0 1007342
09:00+15юв4682100 0.1 1007530
12:00+14ююв4894100 3.4 1006452
15:00+14юв2497100 11.5 1005284
18:00+12зюз5897100 4.6 1005409
21:00+11ю2595100 5.1 1006148
20 мая, чт
чт2000:00+12ю41097100 1.6 1005401
03:00+11ю4997100 3.9 1005360
06:00+11ю5109899 2.4 1006389
09:00+12ююз5893100 2.9 1007684
12:00+13ююз5889100 0.3 1009648
15:00+14юз6985100 0.6 1010741
18:00+16юз578068 0.3 10111000
21:00+11з35945 0.3 101381
21 мая, пт
пт2100:00+9з22945 0.0 101423
03:00+9зюз119499 0.0 101410
06:00+10зсз1293100 0.0 101575
09:00+14с2279100 0.0 1016430
12:00+18всв2266100 0.0 1015760
15:00+18всв2470100 0.0 1015667
18:00+17ссв4882100 0.0 1014242
21:00+16всв61376100 0.1 1014361
22 мая, сб
сб2200:00+16всв71477100 0.0 1012340
03:00+15всв71785100 0.3 1012465
06:00+15всв7148467 0.0 1011444
09:00+18в5877100 0.0 1011694
12:00+22в5662100 0.0 1011935
15:00+24вюв446199 0.0 10101093
18:00+23вюв2573100 0.0 1010409
21:00+19св2282100 0.0 101020